Time,TemperatureF,DewpointF,PressureIn,WindDirection,WindDirectionDegrees,WindSpeedMPH,WindSpeedGustMPH,Humidity,HourlyPrecipIn,Conditions,Clouds,dailyrainin,SoftwareType,DateUTC
2013-08-15 00:11:00,79.0,51.0,27.78,WNW,288,5.0,14.0,38,0.00,,,0.00,,2013-08-15 07:11:00,
2013-08-15 00:21:00,78.0,51.0,27.79,WNW,291,7.0,11.0,39,0.00,,,0.00,,2013-08-15 07:21:00,
2013-08-15 00:41:00,78.0,51.0,27.79,NW,321,8.0,13.0,39,0.00,,,0.00,,2013-08-15 07:41:00,
2013-08-15 00:52:00,77.0,51.0,27.79,WNW,301,9.0,15.0,40,0.00,,,0.00,,2013-08-15 07:52:00,
2013-08-15 01:11:00,77.0,51.0,27.79,WNW,294,8.0,18.0,40,0.00,,,0.00,,2013-08-15 08:11:00,
2013-08-15 01:21:00,77.0,51.0,27.80,WNW,288,7.0,14.0,41,0.00,,,0.00,,2013-08-15 08:21:00,
2013-08-15 01:41:00,77.0,52.0,27.80,NW,311,3.0,16.0,42,0.00,,,0.00,,2013-08-15 08:41:00,
2013-08-15 01:52:00,76.0,52.0,27.80,WNW,289,2.0,7.0,43,0.00,,,0.00,,2013-08-15 08:52:00,
2013-08-15 02:11:00,76.0,52.0,27.81,NW,304,6.0,12.0,43,0.00,,,0.00,,2013-08-15 09:11:00,
2013-08-15 02:21:00,76.0,53.0,27.81,NW,310,5.0,12.0,45,0.00,,,0.00,,2013-08-15 09:21:00,
2013-08-15 02:42:00,76.0,53.0,27.80,WNW,293,5.0,14.0,45,0.00,,,0.00,,2013-08-15 09:42:00,
2013-08-15 02:53:00,75.0,53.0,27.81,WNW,302,5.0,13.0,46,0.00,,,0.00,,2013-08-15 09:53:00,
2013-08-15 03:11:00,75.0,53.0,27.81,WNW,284,6.0,12.0,47,0.00,,,0.00,,2013-08-15 10:11:00,
2013-08-15 03:22:00,75.0,53.0,27.80,WNW,299,9.0,14.0,47,0.00,,,0.00,,2013-08-15 10:22:00,
2013-08-15 03:42:00,75.0,53.0,27.80,WNW,292,9.0,15.0,47,0.00,,,0.00,,2013-08-15 10:42:00,
2013-08-15 03:52:00,75.0,53.0,27.81,WNW,295,8.0,14.0,47,0.00,,,0.00,,2013-08-15 10:52:00,
2013-08-15 04:11:00,75.0,54.0,27.81,NW,306,9.0,14.0,48,0.00,,,0.00,,2013-08-15 11:11:00,
2013-08-15 04:22:00,74.0,54.0,27.81,WNW,299,6.0,12.0,50,0.00,,,0.00,,2013-08-15 11:22:00,
2013-08-15 04:42:00,74.0,54.0,27.80,West,274,8.0,14.0,50,0.00,,,0.00,,2013-08-15 11:42:00,
2013-08-15 04:51:00,74.0,55.0,27.80,NW,321,7.0,12.0,51,0.00,,,0.00,,2013-08-15 11:51:00,
2013-08-15 05:11:00,73.0,54.0,27.80,WNW,288,8.0,16.0,52,0.00,,,0.00,,2013-08-15 12:11:00,
2013-08-15 05:21:00,74.0,55.0,27.80,WNW,285,7.0,14.0,51,0.00,,,0.00,,2013-08-15 12:21:00,
2013-08-15 05:41:00,74.0,55.0,27.80,WNW,287,5.0,11.0,51,0.00,,,0.00,,2013-08-15 12:41:00,
2013-08-15 05:51:00,73.0,54.0,27.79,WNW,295,7.0,14.0,52,0.00,,,0.00,,2013-08-15 12:51:00,
2013-08-15 06:11:00,73.0,54.0,27.80,WNW,302,5.0,10.0,52,0.00,,,0.00,,2013-08-15 13:11:00,
2013-08-15 06:21:00,74.0,55.0,27.81,WNW,300,3.0,12.0,51,0.00,,,0.00,,2013-08-15 13:21:00,
2013-08-15 06:42:00,72.0,55.0,27.81,NNW,328,2.0,6.0,56,0.00,,,0.00,,2013-08-15 13:42:00,
2013-08-15 06:52:00,71.0,55.0,27.81,ENE,77,4.0,10.0,58,0.00,,,0.00,,2013-08-15 13:52:00,
2013-08-15 07:11:00,71.0,56.0,27.82,NNE,19,2.0,9.0,59,0.00,,,0.00,,2013-08-15 14:11:00,
2013-08-15 07:22:00,71.0,56.0,27.83,WNW,284,5.0,9.0,59,0.00,,,0.00,,2013-08-15 14:22:00,
2013-08-15 07:42:00,71.0,55.0,27.83,NNW,327,6.0,12.0,58,0.00,,,0.00,,2013-08-15 14:42:00,
2013-08-15 07:53:00,72.0,56.0,27.83,NW,310,5.0,14.0,58,0.00,,,0.00,,2013-08-15 14:53:00,
2013-08-15 08:12:00,72.0,56.0,27.83,WNW,293,6.0,10.0,57,0.00,,,0.00,,2013-08-15 15:12:00,
2013-08-15 08:23:00,73.0,56.0,27.83,WNW,288,2.0,7.0,55,0.00,,,0.00,,2013-08-15 15:23:00,
2013-08-15 08:43:00,73.0,57.0,27.83,East,98,2.0,4.0,58,0.00,,,0.00,,2013-08-15 15:43:00,
2013-08-15 08:54:00,72.0,57.0,27.84,WNW,282,1.0,3.0,60,0.00,,,0.00,,2013-08-15 15:54:00,
2013-08-15 09:13:00,73.0,57.0,27.83,NNE,20,1.0,2.0,57,0.00,,,0.00,,2013-08-15 16:13:00,
2013-08-15 09:25:00,74.0,59.0,27.82,NE,53,1.0,6.0,60,0.00,,,0.00,,2013-08-15 16:25:00,
2013-08-15 09:44:00,74.0,59.0,27.83,ENE,77,1.0,3.0,60,0.00,,,0.00,,2013-08-15 16:44:00,
2013-08-15 09:55:00,74.0,58.0,27.82,ESE,104,0.0,3.0,58,0.00,,,0.00,,2013-08-15 16:55:00,
2013-08-15 10:18:00,76.0,59.0,27.82,ESE,104,0.0,1.0,56,0.00,,,0.00,,2013-08-15 17:18:00,
2013-08-15 10:30:00,76.0,-99.9,27.82,ESE,105,0.0,1.0,56,0.00,,,0.00,,2013-08-15 17:30:00,
2013-08-15 11:00:00,-999.0,-99.9,27.83,ESE,120,0.0,2.0,-999,-99.99,,,-99.99,,2013-08-15 18:00:00,
2013-08-15 11:33:00,-999.0,-99.9,27.83,ESE,110,0.0,1.0,-999,0.00,,,0.00,,2013-08-15 18:33:00,
2013-08-15 11:40:00,-999.0,-99.9,27.82,East,86,0.0,2.0,51,0.00,,,0.00,,2013-08-15 18:40:00,
2013-08-15 11:49:00,80.0,60.0,27.82,East,86,0.0,2.0,51,0.00,,,0.00,,2013-08-15 18:49:00,
2013-08-15 12:06:00,-999.0,-99.9,27.82,ESE,105,0.0,1.0,-999,0.00,,,0.00,,2013-08-15 19:06:00,
2013-08-15 12:17:00,81.0,61.0,27.82,ESE,115,0.0,1.0,51,0.00,,,0.00,,2013-08-15 19:17:00,
2013-08-15 12:32:00,-999.0,-99.9,27.82,ESE,110,0.0,1.0,-999,-99.99,,,-99.99,,2013-08-15 19:32:00,
2013-08-15 12:49:00,83.0,61.0,27.81,ESE,110,0.0,1.0,48,0.00,,,0.00,,2013-08-15 19:49:00,
2013-08-15 13:11:00,-999.0,-99.9,27.81,NW,315,1.0,-999.0,-999,-99.99,,,-99.99,,2013-08-15 20:11:00,
2013-08-15 13:27:00,84.0,60.0,27.80,North,7,0.0,2.0,44,0.00,,,0.00,,2013-08-15 20:27:00,
2013-08-15 13:56:00,86.0,60.0,27.79,ESE,123,0.0,1.0,42,0.00,,,0.00,,2013-08-15 20:56:00,
2013-08-15 14:16:00,87.0,61.0,27.79,ESE,121,0.0,1.0,42,0.00,,,0.00,,2013-08-15 21:16:00,
2013-08-15 14:57:00,87.0,60.0,27.80,SE,127,0.0,1.0,41,0.00,,,0.00,,2013-08-15 21:57:00,
2013-08-15 15:17:00,87.0,59.0,27.80,NE,47,0.0,1.0,39,0.00,,,0.00,,2013-08-15 22:17:00,
2013-08-15 15:29:00,87.0,60.0,27.79,WNW,301,0.0,4.0,40,0.00,,,0.00,,2013-08-15 22:29:00,
2013-08-15 15:58:00,85.0,58.0,27.79,NNW,334,2.0,6.0,40,0.00,,,0.00,,2013-08-15 22:58:00,
2013-08-15 16:15:00,85.0,58.0,27.78,NNW,345,4.0,8.0,40,0.00,,,0.00,,2013-08-15 23:15:00,
2013-08-15 16:33:00,-999.0,-99.9,27.78,WNW,295,6.0,10.0,40,0.00,,,0.00,,2013-08-15 23:33:00,
2013-08-15 16:55:00,84.0,59.0,27.77,WNW,302,9.0,13.0,43,0.00,,,0.00,,2013-08-15 23:55:00,
2013-08-15 17:12:00,84.0,59.0,27.78,NNW,332,9.0,18.0,43,0.00,,,0.00,,2013-08-16 00:12:00,
2013-08-15 17:24:00,84.0,60.0,27.78,NNW,338,10.0,20.0,44,0.00,,,0.00,,2013-08-16 00:24:00,
2013-08-15 17:44:00,83.0,59.0,27.78,WSW,256,9.0,18.0,44,0.00,,,0.00,,2013-08-16 00:44:00,
2013-08-15 17:52:00,84.0,60.0,27.78,WNW,300,7.0,18.0,45,0.00,,,0.00,,2013-08-16 00:52:00,
2013-08-15 18:15:00,83.0,60.0,27.79,WNW,299,9.0,16.0,46,0.00,,,0.00,,2013-08-16 01:15:00,
2013-08-15 18:26:00,82.0,60.0,27.79,West,276,12.0,20.0,47,0.00,,,0.00,,2013-08-16 01:26:00,
2013-08-15 18:41:00,-999.0,-99.9,27.79,NW,316,12.0,-999.0,-999,-99.99,,,-99.99,,2013-08-16 01:41:00,
2013-08-15 18:54:00,80.0,59.0,27.80,WNW,294,15.0,22.0,48,0.00,,,0.00,,2013-08-16 01:54:00,
2013-08-15 19:12:00,80.0,59.0,27.79,West,273,13.0,25.0,48,0.00,,,0.00,,2013-08-16 02:12:00,
2013-08-15 19:21:00,79.0,58.0,27.79,WNW,297,14.0,26.0,49,0.00,,,0.00,,2013-08-16 02:21:00,
2013-08-15 19:42:00,78.0,58.0,27.80,WNW,287,15.0,23.0,51,0.00,,,0.00,,2013-08-16 02:42:00,
2013-08-15 19:52:00,78.0,58.0,27.80,WNW,285,9.0,22.0,51,0.00,,,0.00,,2013-08-16 02:52:00,
2013-08-15 20:11:00,77.0,60.0,27.81,West,278,13.0,20.0,55,0.00,,,0.00,,2013-08-16 03:11:00,
2013-08-15 20:21:00,76.0,59.0,27.80,WNW,294,17.0,25.0,55,0.00,,,0.00,,2013-08-16 03:21:00,
2013-08-15 20:43:00,75.0,58.0,27.81,WNW,295,14.0,25.0,55,0.00,,,0.00,,2013-08-16 03:43:00,
2013-08-15 20:53:00,75.0,57.0,27.83,NW,304,11.0,20.0,53,0.00,,,0.00,,2013-08-16 03:53:00,
2013-08-15 21:13:00,75.0,54.0,27.83,NW,317,10.0,18.0,48,0.00,,,0.00,,2013-08-16 04:13:00,
2013-08-15 21:23:00,76.0,54.0,27.83,NW,305,13.0,20.0,46,0.00,,,0.00,,2013-08-16 04:23:00,
2013-08-15 21:42:00,75.0,53.0,27.83,NW,309,9.0,17.0,47,0.00,,,0.00,,2013-08-16 04:42:00,
2013-08-15 21:53:00,75.0,53.0,27.83,West,278,5.0,14.0,47,0.00,,,0.00,,2013-08-16 04:53:00,
2013-08-15 22:11:00,74.0,54.0,27.85,NNW,347,4.0,11.0,50,0.00,,,0.00,,2013-08-16 05:11:00,
2013-08-15 22:21:00,73.0,54.0,27.84,NW,315,7.0,14.0,52,0.00,,,0.00,,2013-08-16 05:21:00,
2013-08-15 22:42:00,74.0,54.0,27.84,WNW,284,10.0,14.0,50,0.00,,,0.00,,2013-08-16 05:42:00,
2013-08-15 23:01:00,74.0,54.0,27.83,WNW,291,9.0,16.0,49,0.00,,,0.00,,2013-08-16 06:01:00,